Location: Kelshall
(52.0000°N, 0.0500°W)
Time: 23:26:25
(UTC+00:00)

ATLAS CENTAUR R/B - Pass Details

Date: 18 September 2020
Orbit: 479 x 667 km, 64.7° (Epoch: 12 October)

Event Time Altitude Azimuth Distance (km) Brightness Sun altitude
Rises 21:07:15 0° 302° (WNW) 2,595 6.0 -26.1°
Reaches altitude 10° 21:10:41 10° 335° (NNW) 1,685 4.6 -26.5°
Maximum altitude 21:12:11 12° 359° (N) 1,555 4.1 -26.7°
Drops below altitude 10° 21:13:40 10° 23° (NNE) 1,670 4.0 -26.8°
Enters shadow 21:13:42 10° 23° (NNE) 1,674 4.0 -26.8°
